Location: Newark
(39.0622°N, 106.5590°E)
Time: 02:34:46
(UTC+00:00)

A-11 Canister half - Visible Passes

Search period start: 29 January 2020 00:00
Search period end: 08 February 2020 00:00
Orbit: 1525 x 1684 km, 47.3° (Epoch: 28 January)

Date Brightness Start Highest point End Pass type
(mag) Time Alt. Az. Time Alt. Az. Time Alt. Az.
29 Jan 9.3 11:00:29 10° W 11:09:40 59° NNW 11:17:50 15° ENE visible
29 Jan 9.2 13:06:46 10° WNW 13:16:03 56° N 13:16:08 56° NNE visible
29 Jan 10.8 15:12:07 10° WNW 15:14:26 20° WNW 15:14:26 20° WNW visible
30 Jan 9.3 10:38:47 10° W 10:47:59 60° NNW 10:57:27 10° ENE visible
30 Jan 9.2 12:45:06 10° WNW 12:54:21 55° N 12:55:45 51° NE visible
30 Jan 10.5 14:50:29 10° WNW 14:54:03 27° WNW 14:54:03 27° WNW visible
31 Jan 9.2 12:23:27 10° WNW 12:32:39 54° N 12:35:23 43° NE visible
31 Jan 10.1 14:28:50 10° WNW 14:33:41 36° WNW 14:33:41 36° WNW visible
01 Feb 9.3 12:01:46 10° WNW 12:10:57 54° N 12:15:02 35° ENE visible
01 Feb 9.7 14:07:13 10° WNW 14:13:20 47° WNW 14:13:20 47° WNW visible
02 Feb 9.3 11:40:06 10° WNW 11:49:14 53° N 11:54:42 27° ENE visible
02 Feb 9.3 13:45:35 10° WNW 13:53:01 61° NW 13:53:01 61° NW visible
02 Feb 11.2 15:51:09 10° WNW 15:51:19 11° WNW 15:51:19 11° WNW visible
03 Feb 9.3 11:18:26 10° WNW 11:27:33 53° N 11:34:25 20° ENE visible
03 Feb 8.9 13:23:56 10° WNW 13:32:44 77° NNW 13:32:44 77° NNW visible
03 Feb 11.0 15:29:27 10° WNW 15:31:02 16° WNW 15:31:02 16° WNW visible
04 Feb 9.3 10:56:44 10° WNW 11:05:50 52° N 11:14:09 14° ENE visible
04 Feb 8.8 13:02:19 10° WNW 13:11:49 81° NNE 13:12:29 77° ENE visible
04 Feb 10.7 15:07:45 10° WNW 15:10:48 22° W 15:10:48 22° W visible
05 Feb 9.4 10:35:04 10° WNW 10:44:08 52° N 10:53:25 10° ENE visible
05 Feb 8.9 12:40:41 10° WNW 12:50:10 79° NNE 12:52:17 59° E visible
05 Feb 10.4 14:46:04 10° WNW 14:50:36 29° W 14:50:36 29° W visible
06 Feb 8.9 12:19:02 10° WNW 12:28:30 76° NNE 12:32:09 44° ESE visible
06 Feb 10.0 14:24:23 10° WNW 14:30:29 37° W 14:30:29 37° W visible
07 Feb 9.0 11:57:24 10° WNW 12:06:50 74° NNE 12:12:05 31° ESE visible
07 Feb 9.7 14:02:42 10° WNW 14:10:25 44° WSW 14:10:25 44° WSW visible
